User: anonymous   Login
Location: Newark
(47.8285°N, 0.6972°W)
Time: 08:04:54
(UTC+00:00)
Language:

FALCONSAT 3 - Orbit

View from above orbital plane
View from above orbital plane
View from above satellite
View from above satellite

Ground track
Ground track

The orbit data is extracted from the following two-line orbital elements,

1 30776U 07006E   19349.80095789 +.00002239 +00000-0 +61949-4 0  9997
2 30776 035.4361 020.6234 0003270 293.5901 066.4482 15.36926263708407
Epoch (UTC): 15 December 2019 19:13:22
Eccentricity: 0.0003270
inclination: 35.4361°
perigee height: 453 km
apogee height: 457 km
right ascension of ascending node: 20.6234°
argument of perigee: 293.5901°
revolutions per day: 15.36926263
mean anomaly at epoch: 66.4482°
orbit number at epoch: 70840

The dashed part of the orbit path shows where the satellite is in the earth's shadow,  

DLR